AirNav   Air Wisconsin pilot careers
 
 1406 users online  

63B Limington-Harmon Airport
Limington, Maine, USA

GOING TO LIMINGTON?


FAA INFORMATION EFFECTIVE 31 JANUARY 2019

Location

FAA Identifier: 63B
Lat/Long: 43-45-46.9000N / 070-40-20.9000W
43-45.781667N / 070-40.348333W
43.7630278 / -70.6724722
(estimated)
Elevation: 292.3 ft. / 89.1 m (surveyed)
Variation: 17W (1985)
From city: 3 miles N of LIMINGTON, ME
Time zone: UTC -5 (UTC -4 during Daylight Saving Time)
Zip code: 04049

Airport Operations

Airport use: Open to the public
Activation date: 09/1975
Control tower: no
ARTCC: BOSTON CENTER
FSS: BANGOR FLIGHT SERVICE STATION
NOTAMs facility: BGR (NOTAM-D service available)
Attendance: UNATTENDED UNATTENDED UNATTENDED
Pattern altitude: 1392.3 ft. MSL
Wind indicator: lighted
Segmented circle: no
Lights: ACTVT LIRL RY 11/29 5 CLICKS - CTAF.

Airport Communications

CTAF/UNICOM: 122.7
APPROACH: 119.75
DEPARTURE: 119.75
WX ASOS at PWM (17 nm SE): PHONE 207-874-7914
WX ASOS at IZG (18 nm NW): 135.775 (207-935-2882)
  • CLNC DLVY THRU FLIGHT SERVICES 1-800-WX-BRIEF.

Nearby radio navigation aids

VOR radial/distance  VOR name  Freq  Var
ENEr010/20.4KENNEBUNK VOR/DME117.1017W

 
NDB name  Hdg/Dist  Freq  Var  ID
ROLLINS028/33.326016WESG . ... --.

Airport Services

Fuel available: 100LL
24 HR. SELF-SERVE FUEL WITH MAJOR CREDIT CARD
Parking: hangars and tiedowns
Airframe service: NONE
Powerplant service: NONE

Runway Information

Runway 11/29

Dimensions: 2973 x 50 ft. / 906 x 15 m
Surface: asphalt, in fair condition
Runway edge lights: non-standard
RY 11/29 NSTD LIRL. RY 29 HAS 2 THLD LIGHTS 320 FT FM THLD. RY 11 HAS 2 THLD LIGHTS 320 FT FM THLD, RWY LIGHTS SPACED AT 400 FT, MANY LIGHTS MISSING.
Runway edge markings: MARKED AS BASIC. NUMBERS DISPLACED 320' FM THRESHOLD
RUNWAY 11  RUNWAY 29
Latitude: 43-45.794253N43-45.769358N
Longitude: 070-40.685082W070-40.010848W
Elevation: 292.3 ft.279.1 ft.
Gradient: 0.4% UP
Traffic pattern: leftleft
Markings: basic, in fair conditionbasic, in fair condition
Touchdown point: yes, no lightsyes, no lights
Obstructions: 70 ft. trees, 330 ft. from runway, 140 ft. left of centerline, 1:1 slope to clear
+2'-20' BRUSH AND TREES 25'-200' FM THRESHOLD, 0'B; +3' BERM 0'-200' FM THRESHOLD, 50'R
47 ft. trees, 405 ft. from runway, 50 ft. right of centerline, 4:1 slope to clear
+15 FT ROAD 50-200 FT FM THLD 0-125 FT RIGHT; +25 FT POLE 50 FT FM THLD 100 FT RIGHT; +35 FT D L 0-200 FT FM THLD, 125 FT RIGHT; FUEL TANK 0 FT FM THLD, 125 FT RIGHT.

Airport Ownership and Management from official FAA records

Ownership: Privately-owned
Owner: LIMINGTON AIRPORT AUTHORITY, LLC
P.O. BOX 483
LIMINGTON, ME 04049
Phone 207-637-2121
Manager: MAHMOUD KANJ
P.O. BOX 483
LIMINGTON, ME 04049
Phone 207-637-2121
EMERGENCY PHONE: 207-756-5782.

Airport Operational Statistics

Aircraft based on the field: 70
Single engine airplanes: 65
Multi engine airplanes: 2
Helicopters: 1
Ultralights: 2
    
Aircraft operations: avg 34/day *
80% local general aviation
20% transient general aviation
<1% military
* for 12-month period ending 13 August 2016

Additional Remarks

WILDLIFE ON OR INVOF AIRPORT
TREE REMOVAL AND GRADING UNDERWAY ON NORTH SIDE OF RUNWAY. WILL CONTINUE ON SOUTH SIDE AND WEST END WHEN NORTH SIDE COMPLETED.
FOR CD CTC PORTLAND APCH AT 207-874-7320. IF UNA, CTC FSS.

Instrument Procedures

There are no published instrument procedures at 63B.

Some nearby airports with instrument procedures:

KPWM - Portland International Jetport (17 nm SE)
KIZG - Eastern Slopes Regional Airport (18 nm NW)
B19 - Biddeford Municipal Airport (20 nm SE)
KSFM - Sanford Seacoast Regional Airport (22 nm S)
KLEW - Auburn/Lewiston Municipal Airport (24 nm NE)
 
Loc | Ops | Rwys | IFR | FBO | Links
Com | Nav | Svcs | Stats | Notes

Auburn-Lewiston Municipal Airport
 
Area around 63B (Limington-Harmon Airport)
 
Road maps at: MapQuest Bing Google
 
Aerial photo
WARNING: Photo may not be current or correct
Aerial photo of 63B (Limington-Harmon Airport)
Photo by Pete Chaisson- Portland Flight Services
Photo taken 25-Sep-2014
looking southwest.

Do you have a better or more recent aerial photo of Limington-Harmon Airport that you would like to share? If so, please send us your photo.

 
Sectional chart

 
Airport distance calculator
Flying to Limington-Harmon Airport? Find the distance to fly.

From to 63B

Sunrise and sunset
Times for 15-Feb-2019
 Local
(UTC-5)
 Zulu
(UTC)
Morning civil twilight06:1311:13
Sunrise06:4311:43
Sunset17:1122:11
Evening civil twilight17:4122:41

Current date and time
Zulu (UTC)  15-Feb-2019 18:56:06
Local (UTC-5)  15-Feb-2019 13:56:06
 
METAR
KPWM 
18nm SE 
151751Z 14010G16KT 2 1/2SM -RA BR OVC006 04/03 A2981 RMK AO2 SLP097 P0008 60015 T00390028 10039 21056 58054
KIZG 
18nm NW 
151830Z AUTO 00000KT 6SM UP BR OVC013 M02/M03 A2978 RMK AO2 UPB30SNE30 P0002 T10221033
KSFM 
23nm S 
151756Z AUTO 14007KT 4SM -RA BR OVC004 04/03 A2977 RMK AO2 PRESFR SLP088 6//// T00390028 10039 21089 56047 PNO $
KLEW 
24nm NE 
151815Z AUTO VRB03KT 3SM -SN BR OVC004 01/M01 A2981 RMK AO2 P0000 FZRANO
KCWN 
26nm NW 
151758Z AUTO 00000KT 10SM CLR 06/M06 A2969 RMK AO2 SLP973 T00581061 10060 21082 52017 $
KDAW 
31nm S 
151751Z AUTO 15006KT 4SM -RA BR OVC004 03/03 A2975 RMK AO2 SLP076 P0000 60004 T00330033 10033 21044 58052
KLCI 
34nm W 
151756Z AUTO 36006KT 4SM -SN BR BKN005 OVC009 00/M01 A2975 RMK AO2 UPB10E41SNE10B41 SLP093 P0002 60007 T00001011 10000 21039 58048 FZRANO $
TAF
KPWM 
18nm SE 
151722Z 1518/1618 15008G15KT 3SM -RA OVC015 FM152000 18012G20KT P6SM -RA OVC008 FM160200 21011G19KT P6SM BKN025 FM160500 28009KT P6SM SCT050
NOTAMs
Click for the latest NOTAMs
NOTAMs are issued by the DoD/FAA and will open in a separate window not controlled by AirNav.

 

 
 

FBO, Fuel Providers, and Aircraft Ground Support

  
 Business Name 
 
 Contact 
 
 Services / Description 
 
Fuel Prices
 
Comments
  
 Limington-Harmon Airport
207-637-2121
[web site]
[email]
Airport management, Aviation fuel, Aircraft parking (ramp or tiedown), Hangars, Passenger terminal and lounge, Aircraft maintenance, Aircraft modifications, Aircraft painting, ...

More info about Limington-Harmon Airport
independent
100LL
SS $5.99 
 Updated 31-Dec-2018
 
   1 read write
SS=Self service
Update Fuel Prices
 

Would you like to see your business listed on this page?

 If your business provides an interesting product or service to pilots, flight crews, aircraft, or users of the Limington-Harmon Airport, you should consider listing it here.  To start the listing process, click on the button below
 
Add a business
 

Other Pages about Limington-Harmon Airport

Update a link
 
Copyright © AirNav, LLC. All rights reserved. Privacy Policy  Contact